Location: Pinawa
(50.1500°N, 95.8830°W)
Time: 08:31:11
(UTC-05:00)

Daily predictions for brighter satellites

Satellite Brightness Start Highest point End
(mag) Time Altitude Azimuth Time Altitude Azimuth Time Altitude Azimuth
Cosmos 1908 Rocket 3.7 21:10:31 10° N 21:14:49 58° ENE 21:19:06 10° SSE
Resurs 01 Rocket 3.1 21:11:56 10° SSW 21:16:07 40° W 21:20:21 10° NNW
SAR-Lupe-4 3.7 21:15:12 10° SSE 21:18:47 79° WSW 21:22:24 10° NNW
Meteor 1-29 3.2 21:18:09 10° NNE 21:21:32 46° E 21:24:52 10° S
USA 234 3.4 21:15:40 10° ESE 21:22:15 84° SSW 21:28:50 10° WNW
Cosmos 2263 Rocket 3.3 21:17:06 10° NW 21:22:21 44° WSW 21:27:36 10° S
Sich 1 Rocket 3.6 21:21:35 10° N 21:26:06 75° E 21:30:37 10° SSE
Cosmos 1782 4.5 21:24:45 10° SE 21:27:23 17° E 21:30:01 10° NE
Envisat 3.2 21:23:15 10° S 21:28:20 79° WSW 21:33:28 10° NNW
Meteor 1-26 Rocket 4.5 21:23:52 10° S 21:29:26 54° E 21:35:07 10° NNE
Cosmos 1782 Rocket 3.9 21:25:17 10° N 21:29:34 50° ENE 21:33:51 10° SSE
Cosmos 1733 Rocket 4.2 21:26:10 10° NNW 21:30:27 47° W 21:34:43 10° SSW
Helios 1A 3.7 21:28:33 10° S 21:32:44 56° W 21:36:57 10° NNW
Cosmos 1825 4.4 21:30:03 10° NNW 21:33:18 27° W 21:36:31 10° SSW
Cosmos 1867 4.5 21:29:34 10° NW 21:34:47 46° WSW 21:39:56 10° SSE
CZ-4C R/B 3.3 21:30:30 10° NW 21:37:06 54° NE 21:44:27 10° ESE
Okean 1-7 3.7 21:34:26 10° SSE 21:38:27 35° E 21:42:29 10° NNE
Cosmos 2322 Rocket 3.1 21:35:14 10° SW 21:40:44 55° NW 21:46:19 10° NNE
H-2A R/B 3.1 21:37:56 11° ESE 21:41:53 27° ENE 21:46:00 10° N
Cosmos 2084 3.6 21:38:56 10° NW 21:42:41 52° NE 21:46:00 13° ESE
MetOp-B 4.4 21:38:22 10° SE 21:43:34 55° ENE 21:48:48 10° N
Cosmos 1939 Rocket 3.3 21:39:57 10° S 21:43:55 61° WSW 21:47:52 10° NNW
Cosmos 2237 4.5 21:38:34 10° S 21:44:01 47° ESE 21:49:30 10° NE
CENTAUR R/B 4.4 21:38:24 10° W 21:44:25 35° NNW 21:51:13 10° NE
SeaSat 1 3.2 21:41:46 11° ESE 21:46:05 41° NE 21:50:43 10° NNW
Cosmos 1862 Rocket 4.3 21:41:56 10° SSW 21:46:20 57° WNW 21:50:48 10° N
Cosmos 2360 Rocket 2.2 21:41:55 10° SSW 21:47:34 79° ESE 21:53:16 10° NNE
ERS-1 Rocket 3.0 21:42:37 10° SSE 21:47:38 80° ENE 21:52:40 10° NNW
Okean 2 Rocket 3.3 21:43:11 10° N 21:47:40 56° ENE 21:51:48 12° SSE
USA 245 4.4 21:43:25 11° SE 21:48:09 43° ENE 21:52:18 10° N
ATLAS 5 CENTAUR R/B 3.7 21:46:38 10° WNW 21:51:57 34° WSW 21:57:39 10° S
SPOT 5 3.1 21:48:33 13° SE 21:52:35 48° ENE 21:56:56 10° N
COSMOS 2428 3.0 21:48:16 10° S 21:53:37 44° ESE 21:59:01 10° NE
Atlas Centaur 2 4.4 21:52:11 10° SSW 21:55:38 14° S 21:58:46 11° SSE
Cosmos 1844 3.7 21:52:46 10° NNW 21:58:30 74° ENE 22:03:07 16° SE
NOAA 11 4.2 21:56:06 11° SSE 22:01:25 77° ENE 22:06:55 10° NNW
NOSS 3-1 (C) 4.0 21:59:26 10° S 22:04:34 33° ESE 22:10:14 10° NE
ARGOS 3.3 22:00:07 14° SSE 22:04:42 64° ENE 22:10:02 10° N
Cosmos 1606 3.5 22:02:43 18° SE 22:04:49 31° E 22:08:11 10° NNE
Meteor 1-11 Rocket 4.4 21:59:58 10° N 22:05:07 38° ENE 22:08:49 17° SE
Helios 1B rocket 3.5 22:02:04 10° N 22:06:02 48° WNW 22:09:59 10° SW
Cosmos 1703 Rocket 3.6 22:02:45 10° S 22:07:11 85° W 22:11:37 10° N
Cosmos 2322 3.8 22:02:12 10° SSW 22:07:56 87° WNW 22:13:41 10° NNE
Meteor 1-25 Rocket 4.3 22:04:28 10° NNW 22:10:05 81° W 22:15:34 10° S
MOS 1-B Rocket 3.9 22:06:16 15° SSE 22:11:10 70° ENE 22:16:45 10° NNW
USA 229 DEB 3.6 22:04:33 10° SSW 22:11:22 75° SE 22:18:21 10° NE
USA 229 3.6 22:04:40 10° SSW 22:11:29 74° SE 22:18:28 10° NE
SL-16 R/B 3.9 22:07:15 10° WSW 22:12:29 37° NW 22:17:45 10° NNE
YAOGAN 6 3.6 22:09:46 10° S 22:13:14 44° W 22:16:42 10° NNW
Meteor 1-20 Rocket 4.3 22:11:30 10° NNW 22:17:06 81° W 22:22:23 12° S
Cosmos 1898 Rocket 4.2 22:12:19 10° NNW 22:17:14 40° ENE 22:20:27 20° ESE
NOSS 3-1 (A) 4.1 22:16:43 10° S 22:21:50 32° ESE 22:27:29 10° NE
Cosmos 2151 Rocket 3.7 22:17:53 10° N 22:22:18 62° ENE 22:25:01 23° SSE
Cosmos 1844 Rocket 3.0 22:18:02 10° NW 22:23:33 61° WSW 22:27:55 16° S
Cosmos 1745 Rocket 4.5 22:18:18 10° N 22:24:25 47° ENE 22:28:23 21° SE
Cosmos 2237 Rocket 3.1 22:24:38 21° SE 22:27:10 29° ESE 22:32:01 10° NE
Cosmos 2278 Rocket 2.3 22:22:10 10° NNW 22:27:51 71° ENE 22:31:26 23° SE
USA 267 3.5 22:21:32 10° ENE 22:28:05 75° NNW 22:34:37 10° WSW
Cosmos 1536 4.0 22:24:44 10° N 22:28:16 28° ENE 22:29:41 23° ESE
MetOp-A 4.4 22:24:43 13° S 22:29:32 66° WSW 22:34:54 10° NNW
SPOT 1/Viking Rocket 3.6 22:26:05 20° SSE 22:29:43 76° ENE 22:34:56 10° NNW
Cosmos 2333 4.2 22:24:30 10° SSW 22:30:12 72° ESE 22:35:59 10° NNE
Terra 2.6 22:28:13 22° ESE 22:30:39 39° ENE 22:35:05 10° N
Cosmos 2333 Rocket 2.6 22:28:14 14° S 22:32:49 43° ESE 22:38:15 10° NE
Okean 1 Rocket 4.0 22:30:07 10° N 22:34:13 34° ENE 22:35:57 25° ESE
NOSS 0 Rocket 4.3 22:30:34 16° S 22:35:03 40° ESE 22:40:45 10° NE
Cosmos 2221 Rocket 4.2 22:32:14 10° SSW 22:36:35 58° WNW 22:41:01 10° N
Abrixas rocket 2.7 22:34:13 10° W 22:37:20 41° SSW 22:37:53 37° S
Cosmos 1674 Rocket 4.2 22:36:42 28° SE 22:38:05 36° E 22:42:03 10° NNE
Meteor 2-6 Rocket 4.3 22:33:58 14° S 22:39:13 69° E 22:45:07 10° NNE
ATLAS 3B R/B 3.7 22:36:52 10° NW 22:43:25 40° NNE 22:49:10 12° E
Cosmos 1633 2.5 22:42:55 10° N 22:46:38 85° WSW 22:48:06 34° S
H-2A R/B 2.2 22:47:46 33° SE 22:49:33 61° ENE 22:53:55 10° N
Cosmos 2219 Rocket 2.1 22:44:21 10° SSW 22:49:54 68° ESE 22:55:31 10° NNE
CZ-4B R/B 4.4 22:52:46 10° NE 22:56:49 27° E 22:57:21 26° ESE
Cosmos 1975 Rocket 4.4 23:03:03 23° E 23:03:18 23° E 23:06:51 10° NE
Cosmos 1782 3.7 23:00:01 13° SSW 23:03:22 49° WNW 23:07:16 10° N
SL-08 R/B 4.4 22:58:12 10° N 23:04:23 83° W 23:08:00 26° S
USA 234 4.4 23:02:14 19° S 23:05:51 31° SW 23:11:32 10° WNW
Cosmos 1602 3.9 23:02:02 10° NNW 23:05:52 66° W 23:07:11 38° SSW
Cosmos 1300 Rocket 3.5 23:02:40 10° N 23:07:03 88° W 23:08:37 40° S
USA 129 4.0 23:08:05 10° N 23:09:09 24° NNW 23:09:09 24° NNW
Cosmos 1553 Rocket 3.9 23:06:14 23° S 23:10:25 83° E 23:16:37 10° N
Cosmos 1346 Rocket 2.8 23:14:36 38° SSW 23:16:03 79° W 23:20:05 10° N
Aureole 2 Rocket 3.0 23:19:52 37° NNE 23:19:52 37° NNE 23:21:42 10° NNE
H-2A R/B 2.6 23:18:33 25° SSW 23:21:07 48° W 23:25:53 10° NNW
Cosmos 2298 Rocket 4.0 23:15:54 10° NNW 23:21:16 80° WSW 23:23:16 40° SSE
Cosmos 2369 Rocket 4.0 23:17:08 10° NNW 23:21:37 23° NE 23:25:24 13° E
Cosmos 1812 4.2 23:23:24 24° ENE 23:23:24 24° ENE 23:26:04 10° NE
SeaSat 1 3.4 23:21:33 26° SSW 23:23:38 39° WSW 23:28:16 10° NW
Cosmos 1943 Rocket 4.4 23:21:09 10° N 23:24:52 17° NNE 23:28:33 10° ENE
Cosmos 2297 3.6 23:19:33 10° NNW 23:25:19 88° ENE 23:27:27 40° SSE
Cosmos 332 Rocket 4.4 23:25:38 36° ESE 23:25:42 36° ESE 23:30:07 10° NE
Meteor 1-27 Rocket 3.7 23:22:18 24° SSW 23:25:51 79° WNW 23:31:27 10° N
CZ-4C R/B 3.2 23:19:04 10° NW 23:25:53 54° WSW 23:29:38 30° S
Cosmos 2360 Rocket 4.4 23:27:34 10° W 23:32:13 26° NW 23:36:55 10° NNE
Cosmos 1937 Rocket 3.5 23:27:32 10° NNW 23:32:48 75° WSW 23:34:27 44° S
DMSP B5D2-2 4.1 23:28:52 10° NNE 23:34:11 85° WNW 23:36:45 32° SSW
Cosmos 1378 Rocket 3.5 23:34:52 57° SSE 23:35:41 77° E 23:40:09 10° NNE
Cosmos 883 Rocket 4.4 23:35:25 39° SSE 23:37:46 69° E 23:43:51 10° NNE
COSMOS 2428 4.0 23:32:38 10° WSW 23:37:59 40° NW 23:43:22 10° NNE
Cosmos 990 Rocket 3.9 23:34:40 10° NNW 23:39:50 78° WSW 23:41:14 49° S
S3M 4.3 23:38:14 22° SSW 23:42:22 64° WNW 23:48:36 10° N
Okean 3 3.3 23:42:48 65° SSW 23:43:24 88° W 23:47:37 10° N
Cosmos 1980 3.8 23:39:49 18° SW 23:44:02 78° WNW 23:49:44 10° NNE
Cosmos 1975 3.7 23:40:25 10° N 23:44:09 36° ENE 23:44:13 36° ENE
Cosmos 1709 Rocket 4.0 23:38:06 10° N 23:44:32 82° E 23:46:56 41° SSE
ATLAS CENTAUR R/B 2.3 23:45:52 34° ENE 23:45:52 34° ENE 23:48:29 10° NE
SL-24 DEB 4.2 23:43:52 56° SE 23:44:38 66° E 23:49:14 10° N
Cosmos 1544 Rocket 4.0 23:40:42 10° N 23:44:59 47° ENE 23:45:26 45° E
Iridium 4 Rocket 3.7 23:41:48 10° NNW 23:45:49 48° W 23:46:57 37° SW
ASTEX 1 4.3 23:47:35 27° SW 23:49:47 42° W 23:54:31 10° NNW
deb Chang Zheng 4 3.8 23:46:16 10° N 23:50:40 67° WNW 23:51:57 43° SW
SL-16 R/B 2.3 23:49:40 48° SSE 23:50:42 55° ESE 23:56:16 10° NE
Cosmos 1607 4.1 23:47:00 10° NW 23:53:23 74° NE 23:55:58 38° ESE
IGS 5A 4.5 23:54:25 33° WSW 23:55:14 37° W 23:59:07 10° NNW
